Other Public Products
Issued by NWS Grand Forks, ND

Home | Current Version | Previous Version | Graphics & Text | Print | Product List | Glossary On
Versions: 1 2 3 4 5 6 7 8 9 10 11 12 13 14 15 16 17 18 19 20 21 22 23 24 25 26 27 28 29 30 31 32 33 34 35 36 37 38 39 40 41 42 43 44 45 46 47 48 49 50
000
FPUS83 KFGF 251331
OPUFGF
PRAIRIE TO PINES WEATHER ROUNDUP
NATIONAL WEATHER SERVICE EASTERN NORTH DAKOTA/GRAND FORKS ND
800 AM CDT WED APR 25 2018

 **SATELLITE DATA USED TO AUGMENT SKY COVER AT AUTOMATED STATIONS**
 *****  WEATHER ACROSS EASTERN NORTH DAKOTA  *****

CITY           SKY/WX    TMP DP  RH WIND       PRES   REMARKS
GRAND FORKS    FAIR      38  33  82 S13       30.16F
GRND FORKS AFB FAIR      41  31  66 S12       30.15F
GRND FORKS NWS   N/A     41  33  73 S10       30.13F
BUXTON           N/A     41  37  87 S8          N/A
DEVILS LAKE    FAIR      38  29  70 SW12      30.14F
FARGO          FAIR      38  31  76 S9        30.25F
WAHPETON ARPT  FAIR      36  32  87 S3        30.28F
$$

 *****  WEATHER ACROSS CENTRAL AND WESTERN NORTH DAKOTA  *****

CITY           SKY/WX    TMP DP  RH WIND       PRES   REMARKS
JAMESTOWN      FAIR      39  31  72 SW8       30.19F
BISMARCK       FAIR      33  30  88 CALM      30.21F
MINOT          FAIR      45  30  55 S14       30.08F
MINOT AFB      FAIR      46  29  52 SW13      30.07F
GARRISON         N/A     38  31  76 SW7       30.14F
WILLISTON      FAIR      42  30  62 S10       30.06F
DICKINSON      FAIR      37  28  70 S14       30.12F
HETTINGER      FAIR      34  27  75 SW9       30.20F
$$

 *****  OTHER OBSERVATIONS NORTHEAST NORTH DAKOTA  *****

CITY           SKY/WX    TMP DP  RH WIND       PRES   REMARKS
WALHALLA       NOT AVBL
LANGDON        FAIR      39  36  87 SW16      30.10F
CAVALIER         N/A     45  32  61 SW10      30.09F
GRAFTON        FAIR      41  32  70 S7        30.14F
CANDO          FAIR      41  32  70 SW10      30.12F
FORT TOTTEN      N/A     40  29  65 S7        29.95S
ROLLA          FAIR      39  30  70 SW14      30.07F
RUGBY          FAIR      41  32  70 SW14      30.09F
 ***** THE ABOVE OBSERVATIONS ARE NON NWS ARE NOT QUALITY
        CONTROLLED AND MAY MIS-REPORT RAIN FOR SNOW...
$$

 *****  OTHER OBSERVATIONS SOUTHEAST NORTH DAKOTA *****

CITY           SKY/WX    TMP DP  RH WIND       PRES   REMARKS
COOPERSTOWN    NOT AVBL
VALLEY CITY    FAIR      39  37  93 SW12      30.21F
OAKES            N/A     39  36  87 S10       30.24F
GWINNER          N/A     37  34  87 SW8       30.25F
SHEYENNE NWR     N/A     35  35 100 SW5       29.95S
BUFFALO          N/A     40  31  72 W12         N/A
WYNDMERE       NOT AVBL
 ***** THE ABOVE OBSERVATIONS ARE NON NWS ARE NOT QUALITY
       CONTROLLED AND MAY MIS-REPORT RAIN FOR SNOW...
$$

  *****  WEATHER ACROSS NORTHERN MINNESOTA  *****

CITY           SKY/WX    TMP DP  RH WIND       PRES   REMARKS
FLAG ISLAND    FAIR      30  25  80 S12       30.12F WCI  21
WARROAD        FAIR      39  28  65 SW13      30.14F
ROSEAU         FAIR      41  30  65 S14       30.14F
HALLOCK        FAIR      43  32  65 S15       30.11F
THF RVR FALLS  FAIR      38  28  67 S12       30.20
HALSTAD        NOT AVBL
FOSSTON        FAIR      34  25  69 S12       30.23S
BAUDETTE       FAIR      35  24  64 S7        30.17F
WASKISH        FAIR      37  25  60 S8        30.20F
CROOKSTON      FAIR      39  30  70 S15       30.19F
$$
  *****  WEATHER ACROSS CENTRAL AND WEST MINNESOTA  *****

CITY           SKY/WX    TMP DP  RH WIND       PRES   REMARKS
BEMIDJI        FAIR      35  24  64 SW8       30.22F
PARK RAPIDS    FAIR      32  27  81 CALM      30.24S
WADENA         FAIR      34  27  75 CALM      30.25F
DETROIT LAKES  FAIR      36  28  75 S7        30.26F
MOORHEAD       FAIR      37  28  70 S9        30.26F
FERGUS FALLS   FAIR      36  28  75 SW3       30.26F
ELBOW LAKE     FAIR      35  30  82 SW3       30.28F
MORRIS MN      FAIR      36  30  80 CALM      30.27F
STAPLES        FAIR      34  27  75 CALM      30.25F
WHEATON        FAIR      37  30  75 CALM      30.30F
$$
  *****  WEATHER ELSEWHERE ACROSS MINNESOTA  *****

CITY           SKY/WX    TMP DP  RH WIND       PRES   REMARKS
DULUTH         FAIR      35  25  66 CALM      30.24S
INTRNTL FALLS  FAIR      31  26  82 S5        30.20F
ELY            FAIR      32  23  69 CALM      30.22F
CLOQUET        FAIR      36  21  55 CALM      30.24F
BRAINERD       FAIR      32  25  75 CALM      30.26S
HIBBING        FAIR      31  26  82 CALM      30.23F
ALEXANDRIA     FAIR      36  27  69 CALM      30.27S
SAINT CLOUD    FAIR      36  27  69 N3        30.27S
MINNEAPOLIS    FAIR      39  26  59 NE9       30.26S
$$

  *****  WEATHER ACROSS SOUTH DAKOTA  *****

CITY           SKY/WX    TMP DP  RH WIND       PRES   REMARKS
SIOUX FALLS    FAIR      37  29  72 N3        30.29R
BROOKINGS      FAIR      33  29  85 CALM      30.28F
WATERTOWN      FAIR      33  31  92 NW3       30.27S
HURON          FAIR      35  31  85 CALM      30.30F
SISSETON         N/A     36  31  82 S6        30.27F
ABERDEEN       FAIR      33  30  88 S5        30.28F
MITCHELL       FAIR      34  30  85 W5        30.32S
PIERRE         FAIR      32  30  92 SW8       30.28F WCI  25
MOBRIDGE       FAIR      34  29  82 SE5       30.22F
RAPID CITY     FAIR      29  23  78 SE5       30.25F WCI  24
$$

  *****  SOME WEATHER IN NEARBY STATES *****

CITY           SKY/WX    TMP DP  RH WIND       PRES   REMARKS
GLASGOW MT     FAIR      39  33  79 SE8       29.99F
GREAT FALLS MT FAIR      47  23  38 SW15      30.05S
CHEYENNE WY    FAIR      25  22  88 W6        30.32S WCI  18
SCOTTSBLUFF NE FAIR      28  26  92 CALM      30.34F
OMAHA NE       LGT RAIN  43  40  89 N14       30.24R
DES MOINES IA  CLOUDY    48  36  63 N10       30.19R
DAVENPORT IA   FAIR      48  32  53 NE16      30.17R
CHICAGO IL     FAIR      45  33  63 N20       30.10R
EAU CLAIRE WI  FAIR      37  27  67 NE8       30.23S
LA CROSSE WI   FAIR      43  35  73 N8        30.21S
$$

  *****  SOME NATIONAL WEATHER *****

CITY           SKY/WX    TMP DP  RH WIND       PRES   REMARKS
LA GUARDIA NY  LGT RAIN  57  54  89 SE15G26   29.89F
RALEIGH NC     CLOUDY    61  60  97 S3        29.74F
ATLANTA GA     CLOUDY    58  54  86 NW13      29.92R
NEW ORLEANS LA FAIR      67  64  90 NW5       30.07R
OKLAHOMA CITY  HVY RAIN  45  44  97 N21       30.22R FOG
ALBUQUERQUE NM FAIR      46  32  58 E24       30.26R
SALT LAKE CITY MOCLDY    50  25  37 SE9       30.24S
LOS ANGELES CA CLOUDY    56  50  80 CALM      30.06S
BOISE ID       FAIR      45  31  58 SE10      30.17S
SEATTLE WA     FAIR      52  38  58 N9        30.08S
$$

*** WEATHER ACROSS MANITOBA...SASKATCHEWAN AND ONTARIO ***
                ***ONTARIO***

CITY           SKY/WX    TMP DP  RH WIND       PRES   REMARKS
GERALDTON      MOSUNNY   28  19  69 CALM      30.18F
THUNDER BAY    MOSUNNY   34  25  69 W6        30.24S
SIOUX LOOKOUT  MOSUNNY   32  23  69 S6        30.13F
TORONTO        LGT RAIN  48  46  93 E5        29.87F FOG
BIG TROUT LK   SUNNY     34  27  75 S8        29.83F
PICKLE LAKE    MOSUNNY   34  21  60 SW13G20   30.05F WCI  25
DRYDEN         SUNNY     34  23  64 S9        30.13F
KENORA         MOSUNNY   36  21  55 S14G23    30.11F
$$
                *** MANITOBA***

CITY           SKY/WX    TMP DP  RH WIND       PRES   REMARKS
BRANDON        PTSUNNY   39  32  75 SW10      30.00F
DAUPHIN        SUNNY     52  32  46 SW9G17    29.87F
ISLAND LAKE    CLOUDY    41  25  52 SW8       29.72F
PILOT MOUND      N/A     39  28  65 SW12        N/A
THE PAS        CLOUDY    46  32  57 W14       29.78R
THOMPSON       PTSUNNY   41  30  65 W7        29.65R
WINNIPEG       MOSUNNY   43  27  52 S18       30.03F
LYNN LAKE      CLOUDY    39  32  75 NW14G24   29.70R
CHURCHILL      FLURRIES  32  32 100 NW14      29.49F WCI  22
GILLAM         PTSUNNY   43  32  65 W13       29.57F
$$
                ***SASKATCHEWAN***

CITY           SKY/WX    TMP DP  RH WIND       PRES   REMARKS
ESTEVAN        CLOUDY    43  30  61 S18G26    29.98F
KINDERSLEY     CLOUDY    46  30  53 N21       29.93R
LLOYDMINSTER   CLOUDY    45  32  61 W10       29.95R
PRINCE ALBERT  CLOUDY    43  32  65 NW5       29.87R
REGINA         CLOUDY    43  30  61 SE7       29.86F
YORKTON        SUNNY     46  30  53 SW16      29.83F


USA.gov is the U.S. government's official web portal to all federal, state and local government web resources and services.